sat.trackr.live / text

‹ back to catalog

STARLINK-6062

NORAD 56104 · 2023-046M

PAYLOAD ACTIVE UNKNOWN

§ Identity

Operator
Country
US
Launch date
2023-03-29
Launch site
AFETR
Launch vehicle
Mass (kg)
RCS (m²)

Purposes: comms

External: N2YO · Heavens-Above · Gunter

§ Orbital elements

Epoch: 2026-09-20T22:16:34.663872Z

Period
94.27 min
Inclination
43.0038°
Eccentricity
0.0001325
Mean motion
15.27577555 rev/d
Perigee alt
482.1 km
Apogee alt
484.0 km
Semi-major
6,861.2 km
B*
1.1857e-5
RAAN
138.7040°
Arg perigee
260.0568°
Mean anomaly
100.0134°
Rev number
19,189

§ Raw data

STARLINK-60621 56104U 23046M   26263.92817898  .00000064  00000+0  11857-4 0  99972 56104  43.0038 138.7040 0001325 260.0568 100.0134 15.27577555191893

JSON: /api/v1/satellites/56104 · /tle

For live sub-satellite position, see the globe view (requires WebGL).

§ Visibility from observer

Set your observer location to see the next 7 days of passes ≥ 10°. The values pass through the URL so the page stays shareable.

No JS? Fill the form by hand. The geolocation button needs JavaScript.